Location: Unspecified
(0.0000°N, 0.0000°E)
Time: 15:01:32
(UTC+00:00)

deb Delta 126 - Pass Details

Date: 19 February 2026
Orbit: 1137 x 1258 km, 102.0° (Epoch: 8 March)

Event Time Altitude Azimuth Distance (km) Brightness Sun altitude
Rises 04:35:54 0° 197° (SSW) 4,193 ? -24.0°
Reaches altitude 10° 04:39:42 10° 216° (SW) 3,233 ? -23.1°
Enters shadow 04:41:02 13° 226° (SW) 2,994 ? -22.7°
